Regional Weather Roundup
Issued by NWS Kansas City/Pleasant Hill, MO

Home | Current Version | Previous Version | Text Only | Print | Product List | Glossary On
Versions: 1 2 3 4 5 6 7 8 9 10 11 12 13 14 15 16 17 18 19 20 21 22 23 24 25 26 27 28 29 30 31 32 33 34 35 36 37 38 39 40 41 42 43 44 45 46 47 48 49 50
000
ASUS43 KEAX 012010
RWREAX

WEATHER ROUNDUP FOR EASTERN KANSAS AND NORTHWEST MISSOURI
NATIONAL WEATHER SERVICE KANSAS CITY/PLEASANT HILL MO
300 PM CDT SAT OCT 01 2016

KSZ040-057-103>105-MOZ028-029-037-043-012100-
...KANSAS CITY METROPOLITAN AREA...

CITY           SKY/WX    TMP DP  RH WIND       PRES   REMARKS
K.C. INTL      CLOUDY    64  52  64 N5        30.09F
K.C. DOWNTOWN  CLOUDY    68  53  58 N7        30.08F
LEES SUMMIT    CLOUDY    66  54  65 N5        30.08F
OLATHE - IXD   PTSUNNY   70  53  54 N8        30.08F
OLATHE - OJC   CLOUDY    68  53  58 N7        30.08F
LAWRENCE       MOSUNNY   70  55  59 CALM      30.07F

$$

MOZ001>008-011>017-020>025-030>033-038>040-044>046-053-054-012100-
...NORTHERN AND CENTRAL MISSOURI...

CITY           SKY/WX    TMP DP  RH WIND       PRES   REMARKS
ST. JOSEPH     CLOUDY    66  54  65 N3        30.08S
MOSBY          CLOUDY    64  54  68 W3        30.07F
WHITEMAN AFB   CLOUDY    66  56  70 NW3       30.07F
CLINTON        CLOUDY    66  55  68 CALM      30.08F
SEDALIA        CLOUDY    68  55  63 NW8       30.08F
WARSAW         NOT AVBL
CHILLICOTHE      N/A     67  58  72 VRB5      30.07F
KIRKSVILLE     CLOUDY    67  57  70 W5        30.05F

$$

MOZ041-047>049-056>058-063>065-088>090-097-012100-
...EASTERN AND SOUTHERN MISSOURI...

CITY           SKY/WX    TMP DP  RH WIND       PRES   REMARKS
ST. LOUIS INTL CLOUDY    71  56  58 W12       30.02F
SPIRIT OF STL  CLOUDY    69  59  70 NW8       30.02S
COLUMBIA       CLOUDY    66  58  75 W6        30.06F
JEFFERSON CITY CLOUDY    67  57  70 NW7       30.06F
ROLLA          CLOUDY    65  55  70 NW8       30.05F
OSAGE BEACH    CLOUDY    66  56  70 N3        30.08F
SPRINGFIELD    PTSUNNY   72  54  53 N9        30.06F
BRANSON        PTSUNNY   73  50  43 W7        30.07F
JOPLIN         SUNNY     75  52  44 N6        30.06F
WEST PLAINS    PTSUNNY   72  53  51 NW9       30.07F

$$

IAZ060-094-KSZ022-034>040-054-083-096-NEZ052-066-093-012100-
...KANSAS...SOUTHEAST NEBRASKA AND IOWA...

CITY           SKY/WX    TMP DP  RH WIND       PRES   REMARKS
TOPEKA         PTSUNNY   72  54  53 NW7       30.07F
MANHATTAN      SUNNY     73  50  44 E5        30.06F
EMPORIA        SUNNY     74  50  42 VRB6      30.06F
CHANUTE        SUNNY     74  49  41 VRB3      30.06F
WICHITA        MOSUNNY   76  50  40 S9        30.05F
OMAHA          PTSUNNY   68  56  65 SW3       30.08F
LINCOLN        PTSUNNY   71  54  54 E5        30.09F
FALLS CITY     CLOUDY    65  54  67 CALM      30.08F
LAMONI         CLOUDY    65  56  72 NW3       30.06F
DES MOINES     CLOUDY    66  57  72 W3        30.05F

$$




USA.gov is the U.S. government's official web portal to all federal, state and local government web resources and services.